Weather History for Cape Girardeau, MO

Change the Weather History Date:

Monday, July 8, 2013

  Actual Average Record
Temperature  
Mean Temperature 81 °F 79 °F  
Max Temperature 92 °F 89 °F 102 °F (1990)
Min Temperature 69 °F 68 °F 54 °F (1961)
Degree Days  
Heating Degree Days 0 0  
Month to date heating degree days 0 0  
Since 1 June heating degree days 0 4  
Since 1 July heating degree days 0 0  
Cooling Degree Days 16 14  
Month to date cooling degree days 66 109  
Year to date cooling degree days 570 573  
Since 1 June cooling degree days 399 421  
Growing Degree Days 31 (Base 50)    
Moisture  
Dew Point 70 °F    
Average Humidity 69    
Maximum Humidity 90    
Minimum Humidity 47    
Precipitation  
Precipitation 0.00 in 0.11 in 1.55 in (1979)
Month to date precipitation 0.05 0.87  
Year to date precipitation 23.98 25.54  
Sea Level Pressure  
Sea Level Pressure 30.08 in    
Wind  
Wind Speed 4 mph (SSW)    
Max Wind Speed 10 mph    
Max Gust Speed 15 mph    
Visibility 10 miles    
Events      
T = Trace of Precipitation, MM = Missing Value Source: NWS Daily Summary

Daily Weather History Graph

Daily Weather History Graph

Search for Another Location

Airport:

Trip Planner

Search our weather history database for the weather conditions in past years. The results will help you decide how hot, cold, wet, or windy it might be!

Date:

Astronomy

Jul. 08, 2013 Rise Set
Actual Time 5:45 AM CDT 8:21 PM CDT
Civil Twilight 5:14 AM CDT 8:51 PM CDT
Nautical Twilight 4:37 AM CDT 9:29 PM CDT
Astronomical Twilight 3:54 AM CDT 10:11 PM CDT
Moon 6:12 AM CDT (7/8) 8:26 PM CDT (7/8)
Length of Visible Light 15h 36m
Length of Day
14h 35m
New Moon, 0% of the Moon is Illuminated
Jul 8
New Moon
Jul 15
First Quarter
Jul 22
Full
Jul 29
Last Quarter
Aug 6
New

Hourly Weather History & Observations

Time (CDT) Temp. Heat Index Dew Point Humidity Pressure Visibility Wind Dir Wind Speed Gust Speed Precip Events Conditions
12:53 AM 73.9 °F - 68.0 °F 82% 30.08 in 10.0 mi South 4.6 mph - N/A   Clear
1:53 AM 75.0 °F - 68.0 °F 79% 30.07 in 10.0 mi Calm Calm - N/A   Clear
2:53 AM 72.0 °F - 68.0 °F 87% 30.07 in 10.0 mi Calm Calm - N/A   Clear
3:53 AM 71.1 °F - 68.0 °F 90% 30.07 in 10.0 mi Calm Calm - N/A   Clear
4:53 AM 71.1 °F - 68.0 °F 90% 30.07 in 10.0 mi Calm Calm - N/A   Clear
5:53 AM 71.1 °F - 68.0 °F 90% 30.09 in 10.0 mi Calm Calm - N/A   Clear
6:53 AM 73.0 °F - 70.0 °F 90% 30.10 in 9.0 mi Calm Calm - N/A   Clear
7:53 AM 78.1 °F - 72.0 °F 81% 30.10 in 10.0 mi Calm Calm - N/A   Clear
8:53 AM 82.0 °F 86.7 °F 72.0 °F 71% 30.12 in 10.0 mi SW 6.9 mph - N/A   Clear
9:53 AM 84.0 °F 89.6 °F 72.0 °F 67% 30.12 in 10.0 mi SSW 8.1 mph - N/A   Clear
10:53 AM 86.0 °F 91.5 °F 71.1 °F 61% 30.13 in 10.0 mi SW 5.8 mph - N/A   Clear
11:53 AM 87.1 °F 94.5 °F 73.0 °F 63% 30.12 in 10.0 mi Variable 3.5 mph - N/A   Clear
12:53 PM 89.1 °F 95.0 °F 71.1 °F 55% 30.11 in 10.0 mi West 5.8 mph - N/A   Partly Cloudy
1:53 PM 90.0 °F 95.4 °F 70.0 °F 52% 30.09 in 10.0 mi South 5.8 mph - N/A   Partly Cloudy
2:53 PM 91.9 °F 96.9 °F 69.1 °F 47% 30.07 in 10.0 mi SSW 10.4 mph - N/A   Clear
3:53 PM 91.0 °F 96.6 °F 70.0 °F 50% 30.06 in 6.0 mi Variable 5.8 mph - N/A   Haze
4:53 PM 91.0 °F 95.2 °F 68.0 °F 47% 30.05 in 10.0 mi SW 6.9 mph - N/A   Clear
5:53 PM 90.0 °F 93.6 °F 68.0 °F 48% 30.04 in 10.0 mi WSW 5.8 mph - N/A   Clear
6:53 PM 89.1 °F 94.1 °F 70.0 °F 53% 30.04 in 10.0 mi SW 6.9 mph - N/A   Clear
7:53 PM 84.0 °F 89.6 °F 72.0 °F 67% 30.04 in 10.0 mi Calm Calm - N/A   Clear
8:53 PM 80.1 °F 83.6 °F 71.1 °F 74% 30.04 in 10.0 mi SSW 3.5 mph - N/A   Clear
9:53 PM 78.1 °F - 72.0 °F 81% 30.06 in 10.0 mi Calm Calm - N/A   Clear
10:53 PM 78.1 °F - 71.1 °F 79% 30.06 in 10.0 mi SSE 5.8 mph - N/A   Clear
11:53 PM 80.1 °F 83.6 °F 71.1 °F 74% 30.06 in 10.0 mi SSW 9.2 mph - N/A   Clear